Regional Weather Roundup
Issued by NWS

Home | Current Version | Previous Version | Text Only | Print | Product List | Glossary Off
Versions: 1 2 3 4 5 6 7 8 9 10 11 12 13 14 15 16 17 18 19 20 21 22 23 24 25 26 27 28 29 30 31 32 33 34 35 36 37 38 39 40 41 42 43 44 45 46 47 48 49 50

000
ASUS43 KLSX 082010
RWRMO

WEATHER SUMMARY FOR MISSOURI
NATIONAL WEATHER SERVICE SPRINGFIELD MO
200 PM CST MON FEB 08 2016

NOTE: "FAIR" INDICATES FEW OR NO CLOUDS BELOW 12,000 FEET WITH NO
       SIGNIFICANT WEATHER AND/OR OBSTRUCTIONS TO VISIBILITY.
       CURRENT SKY AND/OR WEATHER CONDITIONS ARE NOT AVAILABLE FOR
       CHILLICOTHE AND FARMINGTON.

MOZ001>031-035>038-043-044-053-054-082100-
...NORTHERN AND WESTERN MISSOURI...

CITY           SKY/WX    TMP DP  RH WIND       PRES   REMARKS
KANSAS CTY INT FLURRIES  31  17  56 NW20G31   30.04F WCI  19
KANSAS C DTWN  CLOUDY    32  16  51 NW17G29   30.05F WCI  21
LEE`S SUMMIT   CLOUDY    31  17  56 N21G40    30.04F WCI  18
ST JOSEPH      CLOUDY    30  18  60 N20G29    30.07F WCI  17
CHILLICOTHE      N/A     26  13  57 NW17G37   30.02R WCI  13
KIRKSVILLE     CLOUDY    22   9  57 NW20G29   29.93S WCI   7

$$
MOZ066>068-077>081-088>096-101>105-082100-
...SOUTHWEST MISSOURI...

CITY           SKY/WX    TMP DP  RH WIND       PRES   REMARKS
SPRINGFIELD    CLOUDY    34  15  46 NW25G40   30.00S WCI  21
JOPLIN         CLOUDY    36  18  48 NW24G37   30.10S WCI  24

$$
MOZ032>034-039>042-045>050-055>058-069>072-082100-
...CENTRAL MISSOURI...

CITY           SKY/WX    TMP DP  RH WIND       PRES   REMARKS
COLUMBIA       CLOUDY    27  12  53 NW24G33   29.93S WCI  12
JEFFERSON CITY CLOUDY    29  14  53 NW20G30   29.96F WCI  16
ROLLA          CLOUDY    26  16  65 NW22G33   29.90S WCI  12
SEDALIA        CLOUDY    30  16  56 NW31G46   30.01S WCI  15
WHITEMAN AFB   FLURRIES  29  18  62 NW21G35   30.00S WCI  16
WARRENSBURG    FLURRIES  30  19  64 NW25G37   30.04S WCI  16
OSAGE BEACH    CLOUDY    30  12  47 NW10G17   29.97S WCI  21

$$
MOZ051-052-059>065-082100-
...EAST CENTRAL MISSOURI...

CITY           SKY/WX    TMP DP  RH WIND       PRES   REMARKS
ST LOUIS INTL  FLURRIES  28  13  53 NW15G25   29.88S WCI  16
SPIRIT OF STL  CLOUDY    26  14  60 W24G32    29.90R WCI  11
ST CHARLES     CLOUDY    26  14  60 NW21G28   29.89R WCI  12

$$
MOZ072>076-082>087-097>100-106>115-082100-
...SOUTH CENTRAL AND SOUTHEAST MISSOURI...

CITY           SKY/WX    TMP DP  RH WIND       PRES   REMARKS
CAPE GIRARDEAU CLOUDY    35  14  42 NW22      29.89R WCI  23
FARMINGTON     MIX PCPN  29  18  63 NW16G24   29.88R WCI  17
POPLAR BLUFF   CLOUDY    37  17  44 W17G36    29.90R WCI  27
WEST PLAINS    FLURRIES  32  19  58 NW20G29   29.95R WCI  20

$$



USA.gov is the U.S. government's official web portal to all federal, state and local government web resources and services.